RH
13 13 13 13 13 13 13 13 13 13 13 13 14 14 14 14 14 14 14 13 13 13 13 13 13 13 13 13 13 13 13 12 12 12 12 13 15 18 21 25 28 29
13 13 13 12 12 12 12 12 12 11 11 11 11 11 11 11 11 11 11 11 11 11 11 11 11 11 11 12 12 12 13 13 12 12 12 11 11 11 13 16 20 24
12 12 11 11 11 10 10 10 9 9 9 9 8 8 8 8 8 9 9 9 9 9 9 9 9 9 9 9 9 10 10 11 11 12 12 12 11 11 10 10 12 15
10 10 10 10 9 9 9 8 8 8 7 7 7 7 7 7 7 7 7 7 7 7 8 8 8 8 8 8 8 8 8 8 9 9 10 10 11 11 11 10 10 10
9 9 8 8 8 8 8 8 7 7 7 7 7 7 7 7 7 7 7 7 7 7 7 7 7 7 7 7 7 7 7 7 7 8 8 8 9 9 10 10 10 10
7 7 7 7 7 7 7 7 6 6 6 6 6 6 6 6 6 6 6 6 6 6 7 7 7 7 6 7 7 7 7 7 7 7 7 7 7 8 8 9 9 9
6 6 6 6 6 6 5 5 5 5 5 5 5 5 5 5 5 5 5 5 5 5 6 6 6 6 6 6 6 6 6 6 6 7 7 7 7 7 7 7 8 8
6 5 6 6 5 5 5 5 5 5 5 5 5 5 5 5 5 4 5 5 4 4 4 5 5 5 5 5 5 6 6 6 6 6 6 6 6 7 6 6 7 7
6 6 5 5 5 5 5 5 5 5 5 5 5 5 5 5 5 5 5 4 4 5 4 4 4 4 4 4 4 5 5 5 5 5 5 6 5 6 6 6 6 6
5 5 5 5 5 5 5 5 5 4 5 5 4 5 5 5 5 5 5 5 5 5 4 4 4 4 4 4 4 4 4 4 4 4 5 5 5 5 5 5 5 6
5 4 4 4 4 4 4 4 4 4 4 4 4 4 4 4 4 4 4 4 4 4 4 4 4 4 4 4 4 4 4 4 4 4 4 4 4 5 5 5 5 5
5 4 4 4 4 4 4 4 4 4 4 4 3 3 3 3 3 3 3 3 3 3 3 3 4 4 4 4 4 4 3 4 3 3 4 4 4 4 4 4 5 5
5 4 4 4 4 4 4 4 4 4 4 4 3 3 3 3 3 3 3 3 3 3 3 3 3 3 3 3 3 4 3 3 3 3 3 3 3 4 4 4 4 4
5 4 4 4 4 4 4 4 4 4 4 3 3 3 3 3 3 3 3 3 3 3 2 3 3 2 3 3 2 3 3 3 3 3 3 3 3 3 3 3 4 4
4 4 4 4 4 4 4 4 4 3 3 3 3 3 3 3 3 3 3 3 3 3 2 2 3 2 3 3 2 2 2 2 3 2 3 3 3 3 4 3 4 3
4 4 4 4 4 4 4 4 4 3 3 3 3 3 3 3 3 2 3 3 2 3 3 2 3 2 2 2 2 2 2 2 2 2 2 3 3 3 3 3 4 3
4 4 4 4 4 4 4 4 4 3 3 3 3 3 3 3 3 3 2 3 2 3 3 2 3 2 2 2 2 2 2 2 2 3 3 3 3 3 3 3 3 3
4 4 4 4 4 4 4 4 4 3 3 4 3 3 3 3 3 3 2 3 2 2 2 2 2 2 2 2 2 2 2 2 3 3 3 3 3 3 3 3 3 3
5 4 4 4 4 4 4 4 4 3 3 3 3 3 3 3 3 3 2 2 2 2 2 2 2 2 2 2 2 2 2 2 2 3 3 3 3 3 3 3 3 3
4 4 4 4 4 4 4 3 3 3 3 3 3 3 3 3 3 2 2 2 2 2 2 2 2 2 2 2 2 2 2 2 2 3 3 3 3 3 3 3 3 3
4 4 4 4 4 4 4 3 3 3 3 3 3 3 3 3 3 2 2 2 2 2 2 2 2 2 2 2 2 2 2 2 2 2 2 3 3 3 3 3 3 3
4 4 4 4 4 4 3 4 4 3 3 3 3 3 3 3 2 2 2 2 2 2 2 2 2 2 2 2 2 2 2 2 2 2 2 3 2 2 3 2 3 3
4 4 4 4 4 4 4 3 4 3 3 3 3 3 3 2 2 2 2 2 2 2 3 3 3 2 2 2 2 2 2 2 2 2 2 2 2 2 2 2 2 3
4 4 4 4 4 4 4 4 4 4 4 3 3 3 3 3 3 2 2 2 2 3 3 3 3 2 2 2 2 2 2 2 2 2 2 2 2 2 2 2 2 2
4 4 4 4 4 4 4 4 4 4 4 3 3 3 3 3 3 2 2 2 2 3 3 3 3 2 2 2 2 2 2 2 2 2 2 2 2 2 2 2 2 2
4 4 4 4 4 4 4 4 4 4 4 4 3 3 3 3 3 3 2 3 3 3 3 3 3 2 2 2 2 2 2 2 2 2 2 2 2 2 2 2 2 2
Wind_Speed
127 128 128 128 128 128 128 129 129 129 129 129 130 130 130 130 131 131 131 131 130 130 130 129 129 128 128 127 127 126 125 124 123 122 122 121 120 119 119 119 119 118
125 125 126 126 126 126 126 126 126 126 125 125 126 126 126 126 127 127 128 128 127 127 127 127 127 126 125 125 125 125 124 124 124 123 123 122 121 119 119 119 120 120
122 122 123 123 123 123 122 122 122 122 122 121 121 122 122 122 122 123 123 123 123 123 123 123 123 123 122 122 121 121 121 122 122 123 123 122 122 121 120 119 119 120
120 120 121 121 121 121 121 121 121 120 120 120 120 119 119 119 120 120 120 120 120 120 121 121 121 121 120 119 119 118 118 118 119 120 120 121 121 122 122 121 120 120
119 119 120 120 120 121 121 121 121 120 120 119 119 119 119 118 118 118 118 118 118 118 119 119 119 119 118 118 117 117 117 117 117 117 117 118 119 120 121 121 121 121
117 117 117 117 118 118 118 118 118 118 118 118 117 117 117 117 117 116 116 116 116 116 117 117 117 117 117 117 116 116 116 116 116 116 116 116 116 117 118 119 120 121
113 113 114 114 114 114 115 115 115 115 115 114 114 114 114 114 114 114 113 113 113 114 114 115 115 116 116 116 115 115 115 115 115 115 115 115 115 115 116 117 118 119
109 110 110 111 111 111 112 112 112 112 112 112 112 112 111 111 111 111 111 110 110 110 111 111 112 112 113 113 114 114 114 114 114 114 114 114 114 114 115 116 116 117
105 105 106 106 107 107 107 108 108 108 108 109 109 109 109 109 109 108 108 109 108 108 108 109 109 109 109 110 111 112 113 113 113 114 113 113 113 114 114 115 115 115
101 101 101 101 102 102 102 102 103 103 103 104 104 104 105 105 105 105 105 106 106 106 106 107 107 107 107 107 108 109 110 110 111 112 112 113 113 113 114 114 114 114
97 97 97 98 97 97 97 98 98 98 98 99 99 99 99 100 100 101 101 102 102 103 103 104 104 104 105 105 106 106 107 107 108 109 110 111 111 112 113 113 113 113
93 93 93 93 93 93 93 93 93 93 93 93 93 93 94 95 95 96 97 97 98 98 99 100 101 102 102 102 103 104 104 104 105 106 107 108 109 110 111 111 112 113
89 89 89 89 89 89 89 89 89 89 88 89 88 88 89 89 90 91 92 93 93 94 95 96 96 98 99 99 100 100 100 101 101 103 104 105 105 107 108 109 110 111
85 85 85 85 85 85 85 85 85 85 85 85 85 85 85 86 86 87 87 88 88 89 90 92 93 94 95 96 96 96 97 97 97 98 99 100 101 103 105 106 107 109
82 82 82 82 82 82 82 83 83 82 82 82 82 83 83 83 84 84 84 84 84 85 85 86 87 89 91 92 92 92 93 93 93 94 94 95 96 98 101 103 104 106
79 80 80 80 80 80 80 80 80 80 80 80 80 80 81 81 81 81 80 80 80 81 81 82 82 83 85 86 87 88 88 89 88 89 90 91 92 94 97 99 101 103
78 77 78 77 77 77 78 78 78 78 78 78 78 79 79 79 78 78 77 76 76 76 77 78 78 79 79 80 81 82 83 83 84 85 87 88 89 91 94 96 98 100
75 75 75 75 75 75 75 75 75 76 76 76 76 77 77 77 76 75 75 74 73 73 73 74 74 75 74 75 76 77 77 78 79 80 83 85 87 89 90 92 94 96
73 73 73 73 73 73 74 74 73 73 74 73 74 75 75 75 74 73 73 72 71 70 70 70 71 71 70 71 71 72 73 74 73 74 78 81 84 86 88 89 91 93
71 71 71 71 72 72 72 72 71 72 72 71 72 72 73 72 72 71 71 70 69 68 68 68 68 67 67 68 68 69 71 71 70 70 72 75 79 82 85 87 88 90
68 69 69 69 69 69 69 69 69 69 69 69 69 70 70 70 69 69 68 67 66 65 65 66 67 66 66 66 67 67 68 67 67 67 69 71 74 77 80 82 84 86
65 66 66 67 67 67 67 67 67 67 66 66 67 68 68 67 66 66 65 64 63 62 62 63 65 64 65 65 66 65 64 63 64 65 66 68 70 72 74 76 78 81
63 63 64 64 64 65 65 65 65 66 65 65 66 67 67 65 64 63 62 60 59 59 59 61 63 63 63 63 63 63 61 61 62 63 63 65 66 68 69 71 74 77
62 61 61 61 62 62 62 62 63 64 64 64 65 66 66 65 63 62 60 57 56 56 57 59 62 63 61 60 60 60 59 59 60 60 61 61 62 64 66 69 71 73
61 60 59 59 60 60 59 60 60 61 62 63 64 64 64 63 62 60 59 56 53 54 55 58 61 62 59 57 57 58 57 56 57 58 59 59 60 62 64 65 66 67
60 59 58 57 57 58 58 58 58 59 59 61 62 62 61 61 59 58 57 54 52 53 55 57 59 59 57 55 55 54 53 53 54 55 56 57 59 60 60 60 60 62
Wind_Direction
279 279 279 278 278 277 277 276 276 275 275 274 274 274 273 273 273 272 272 272 271 271 270 270 269 269 268 268 267 266 266 265 264 263 262 260 258 256 253 251 249 247
280 279 279 278 278 277 276 276 275 275 274 274 273 273 273 272 272 272 272 271 271 270 270 269 269 268 267 266 266 265 265 264 264 263 262 261 259 257 255 253 250 248
280 279 279 278 278 277 277 276 275 275 274 274 273 273 273 272 272 271 271 271 271 270 270 269 269 268 267 266 265 264 263 263 262 261 261 260 259 258 256 254 252 250
280 279 279 279 278 278 277 277 276 276 275 275 274 274 273 273 272 272 271 271 270 270 270 269 269 268 268 267 266 264 263 262 261 260 259 259 258 257 256 255 253 251
280 279 279 278 278 278 277 277 277 276 276 275 275 274 274 273 272 272 271 271 270 270 269 269 268 268 267 267 266 265 264 263 262 260 259 258 257 256 255 255 254 252
279 279 279 278 278 278 277 277 277 276 276 275 275 274 274 273 272 272 271 270 270 269 269 268 268 267 266 266 265 264 264 263 262 261 260 259 257 256 255 254 253 252
280 280 279 279 278 278 278 277 277 276 276 276 275 274 274 273 272 272 271 270 269 269 268 267 267 266 266 265 264 264 263 262 261 261 260 259 258 257 256 254 253 252
281 280 280 280 279 279 278 278 278 277 277 276 276 275 275 274 273 273 272 271 270 269 268 267 266 266 265 264 264 263 262 261 261 260 259 258 258 257 256 255 254 252
282 281 281 280 280 279 279 278 278 278 277 277 276 275 275 274 274 273 272 272 271 270 269 268 267 266 265 264 263 262 262 261 260 259 259 258 257 257 256 255 254 253
284 284 283 282 281 281 280 279 279 278 277 277 276 276 275 274 274 273 272 272 271 270 269 268 267 266 265 264 263 262 261 260 260 259 258 257 257 256 256 255 255 254
286 286 285 284 284 283 282 282 281 280 279 278 277 277 276 275 274 273 273 272 271 270 269 268 268 267 265 264 263 262 261 260 260 259 258 257 256 256 255 255 255 254
288 288 287 286 286 285 285 284 283 282 281 280 279 278 277 276 275 274 273 272 271 270 269 268 268 267 266 265 263 262 261 260 260 259 258 258 257 256 255 255 254 253
289 289 288 288 287 287 286 285 285 284 283 282 281 280 279 277 276 275 273 272 271 270 269 268 267 266 266 265 264 263 262 261 260 259 258 258 257 257 256 255 254 253
291 290 290 289 289 288 287 286 286 285 284 283 282 281 280 279 278 276 275 274 273 271 270 269 267 266 266 265 264 264 263 261 260 259 259 258 257 257 256 255 254 253
293 292 291 290 290 289 288 287 286 286 285 284 283 282 281 280 279 278 277 276 275 274 272 271 269 268 267 266 265 264 263 262 262 261 260 259 258 257 256 256 255 254
294 293 292 292 291 290 289 288 288 287 286 285 284 283 282 281 279 278 278 277 276 275 274 273 272 270 268 267 266 265 264 263 262 262 260 259 258 257 256 255 254 253
296 295 294 293 292 291 291 290 289 288 288 287 286 285 284 283 281 280 279 278 277 276 275 274 273 271 270 269 268 266 265 263 262 261 260 259 258 257 255 255 254 253
297 296 295 295 294 293 292 291 291 290 289 288 287 286 285 284 283 282 281 280 278 277 276 275 273 272 271 270 269 267 265 263 262 260 260 259 257 256 255 254 254 253
299 298 297 296 295 295 294 293 292 292 291 290 289 288 287 286 285 284 283 282 280 279 278 277 275 273 272 270 269 267 266 263 261 259 258 257 256 255 255 254 253 252
300 299 299 298 297 296 296 295 294 293 292 291 290 288 287 286 285 285 284 283 282 281 281 279 277 275 273 271 269 266 265 263 261 259 257 256 256 255 254 254 253 252
302 301 300 299 298 298 297 296 295 294 293 292 291 289 287 287 286 285 285 284 283 283 282 280 279 277 275 272 269 267 265 263 262 260 258 256 255 254 254 253 253 253
303 302 301 301 300 299 298 298 297 296 295 294 292 290 289 288 287 286 286 285 285 284 282 281 279 277 274 272 270 269 267 265 263 260 258 256 255 254 254 253 253 252
304 304 303 303 302 301 301 300 299 298 297 296 294 292 291 290 289 288 288 287 287 286 284 282 279 276 274 272 271 270 269 267 264 262 260 257 256 255 254 253 252 251
307 306 305 305 304 303 303 302 301 300 299 297 295 294 293 292 292 291 290 290 289 287 285 282 279 276 274 273 273 271 270 268 266 265 262 260 258 256 253 252 251 250
309 308 308 307 306 305 304 303 301 300 299 297 295 294 294 294 294 293 293 292 291 289 285 282 279 278 277 275 274 272 271 270 268 266 265 262 259 257 254 253 252 252
311 310 310 309 308 307 306 304 302 301 299 297 296 295 294 294 295 295 294 294 293 290 286 282 280 280 279 277 275 273 272 271 269 267 265 263 260 258 257 255 254 252